1521568800.96,65255,11.63,72090.3,-12.43,-13.61,-13.61,0,*65
1521568802.25,65256,11.63,72088.8,-12.41,-13.61,-13.61,0,*64
1521568803.54,65257,11.63,72088.3,-12.41,-13.61,-13.61,0,*65
1521568804.77,65258,11.63,72088.3,-12.41,-13.69,-13.69,0,*6A
1521568806.0,65259,11.63,72094.5,-12.41,-13.69,-13.69,0,*6B
1521568807.28,65260,11.63,72094.5,-12.41,-13.61,-13.61,0,*61
1521568808.54,65261,11.63,72092.8,-12.41,-13.73,-13.61,0,*63
1521568809.75,65262,11.63,72094.0,-12.43,-13.69,-13.69,0,*61
1521568811.01,65263,11.63,72096.3,-12.41,-13.61,-13.69,0,*6A
1521568812.27,65264,11.63,72096.5,-12.41,-13.69,-13.61,0,*6D
1521568813.53,65265,11.63,72096.5,-12.41,-13.69,-13.61,0,*6C
1521568814.79,65266,11.63,72098.0,-12.41,-13.69,-13.61,0,*6F
1521568816.06,65267,11.63,72096.8,-12.43,-13.61,-13.61,0,*64
1521568817.33,65268,11.63,72090.5,-12.43,-13.61,-13.61,0,*6B
1521568818.59,65269,11.63,72090.5,-12.41,-13.69,-13.61,0,*60
1521568819.8,65270,11.63,72092.3,-12.43,-13.69,-13.69,0,*62
1521568821.09,65271,11.63,72090.5,-12.41,-13.61,-13.61,0,*61
1521568822.35,65272,11.63,72090.0,-12.43,-13.61,-13.61,0,*60
1521568823.64,65273,11.63,72088.8,-12.41,-13.61,-13.61,0,*63
1521568824.9,65274,11.63,72094.3,-12.41,-13.69,-13.61,0,*6C
1521568826.16,65275,11.63,72092.5,-12.41,-13.61,-13.69,0,*6D
1521568827.4,65276,11.63,72092.0,-12.43,-13.69,-13.61,0,*6C
1521568828.66,65277,11.63,72092.8,-12.43,-13.61,-13.61,0,*65
1521568829.95,65278,11.63,72090.0,-12.41,-13.61,-13.61,0,*68
1521568831.18,65279,11.63,72090.8,-12.41,-13.69,-13.47,0,*65
1521568832.47,65280,11.63,72088.0,-12.41,-13.61,-13.61,0,*6F
1521568833.73,65281,11.63,72084.5,-12.41,-13.69,-13.61,0,*66
1521568834.97,65282,11.63,72086.5,-12.43,-13.61,-13.55,0,*68
1521568836.26,65283,11.63,72088.5,-12.41,-13.61,-13.61,0,*6C
1521568837.52,65284,11.63,72084.5,-12.41,-13.69,-13.61,0,*63
1521568838.78,65285,11.63,72084.3,-12.43,-13.61,-13.61,0,*68
1521568840.05,65286,11.63,72090.3,-12.41,-13.69,-13.61,0,*61
1521568841.29,65287,11.63,72088.3,-12.43,-13.69,-13.61,0,*62
1521568842.52,65288,11.63,72088.8,-12.41,-13.69,-13.55,0,*68
1521568843.81,65289,11.63,72090.0,-12.41,-13.61,-13.61,0,*66
1521568845.08,65290,11.63,72090.0,-12.43,-13.61,-13.61,0,*6C
1521568846.34,65291,11.63,72088.3,-12.43,-13.61,-13.61,0,*6D
1521568847.56,65292,11.63,72088.8,-12.43,-13.69,-13.55,0,*61
1521568848.82,65293,11.63,72086.8,-12.41,-13.69,-13.61,0,*65
1521568850.06,65294,11.63,72090.8,-12.43,-13.69,-13.61,0,*60
1521568851.33,65295,11.63,72086.8,-12.43,-13.61,-13.61,0,*69
1521568852.59,65296,11.63,72088.5,-12.43,-13.61,-13.61,0,*6A
1521568853.83,65297,11.63,72088.0,-12.43,-13.69,-13.61,0,*63
1521568855.07,65298,11.63,72084.8,-12.43,-13.61,-13.55,0,*63
1521568856.31,65299,11.63,72084.3,-12.43,-13.69,-13.61,0,*6D
1521568857.53,65300,11.56,72080.0,-12.43,-13.55,-13.55,0,*64
1521568858.8,65301,11.63,72082.8,-12.43,-13.61,-13.61,0,*65
1521568860.03,65302,11.63,72084.0,-12.43,-13.61,-13.69,0,*6E
1521568861.27,65303,11.63,72084.8,-12.43,-13.61,-13.55,0,*60
1521568862.49,65304,11.63,72086.8,-12.43,-13.69,-13.55,0,*6F
1521568863.75,65305,11.63,72084.8,-12.43,-13.61,-13.61,0,*61
1521568864.99,65306,11.63,72086.5,-12.41,-13.55,-13.55,0,*60
1521568866.25,65307,11.63,72086.8,-12.41,-13.55,-13.61,0,*66
1521568867.49,65308,11.63,72090.0,-12.43,-13.55,-13.61,0,*6B
1521568868.73,65309,11.63,72086.0,-12.43,-13.61,-13.69,0,*65
1521568869.97,65310,11.63,72084.3,-12.43,-13.61,-13.55,0,*62
1521568871.25,65311,11.63,72086.8,-12.41,-13.61,-13.61,0,*66
1521568872.49,65312,11.63,72088.5,-12.43,-13.69,-13.61,0,*6F
1521568873.76,65313,11.63,72086.3,-12.43,-13.61,-13.61,0,*66
1521568875.02,65314,11.63,72082.5,-12.41,-13.61,-13.55,0,*64
1521568876.29,65315,11.63,72084.0,-12.43,-13.61,-13.61,0,*60
1521568877.5,65316,11.63,72084.8,-12.43,-13.55,-13.55,0,*63
1521568878.72,65317,11.63,72082.5,-12.43,-13.69,-13.55,0,*6D
1521568879.95,65318,11.63,72084.0,-12.43,-13.61,-13.69,0,*65
1521568881.19,65319,11.63,72082.0,-12.43,-13.61,-13.55,0,*6B
1521568882.46,65320,11.63,72080.8,-12.43,-13.61,-13.61,0,*66
1521568883.73,65321,11.63,72082.0,-12.43,-13.61,-13.61,0,*67
1521568884.94,65322,11.63,72082.8,-12.43,-13.69,-13.55,0,*6B
1521568886.2,65323,11.63,72080.3,-12.41,-13.61,-13.55,0,*60
1521568887.43,65324,11.63,72080.5,-12.43,-13.61,-13.47,0,*66
1521568888.67,65325,11.63,72082.3,-12.43,-13.61,-13.55,0,*64
1521568889.91,65326,11.63,72082.8,-12.41,-13.69,-13.55,0,*6D
1521568891.2,65327,11.63,72086.8,-12.41,-13.61,-13.61,0,*63
1521568892.46,65328,11.63,72082.0,-12.43,-13.61,-13.61,0,*6E
1521568893.7,65329,11.63,72080.0,-12.43,-13.61,-13.55,0,*68
1521568894.91,65330,11.63,72082.0,-12.43,-13.69,-13.47,0,*6B
1521568896.18,65331,11.63,72082.3,-12.45,-13.61,-13.55,0,*67
1521568897.42,65332,11.63,72086.0,-12.43,-13.61,-13.55,0,*62
1521568898.63,65333,11.63,72088.8,-12.43,-13.55,-13.69,0,*6B
1521568899.86,65334,11.63,72084.8,-12.43,-13.61,-13.69,0,*6B
1521568901.12,65335,11.56,72082.8,-12.41,-13.55,-13.61,0,*67
1521568902.36,65336,11.63,72084.3,-12.43,-13.61,-13.47,0,*65
1521568903.6,65337,11.63,72082.3,-12.43,-13.61,-13.55,0,*67
1521568904.86,65338,11.63,72084.5,-12.41,-13.55,-13.61,0,*6A
1521568906.1,65339,11.63,72084.0,-12.43,-13.61,-13.55,0,*69
1521568907.34,65340,11.63,72082.5,-12.43,-13.55,-13.61,0,*67
1521568908.55,65341,11.63,72080.3,-12.43,-13.69,-13.55,0,*6E
1521568909.79,65342,11.63,72084.0,-12.43,-13.61,-13.55,0,*65
1521568911.03,65343,11.63,72080.8,-12.43,-13.61,-13.55,0,*64
1521568912.28,65344,11.63,72086.0,-12.43,-13.61,-13.55,0,*63
1521568913.51,65345,11.63,72086.8,-12.43,-13.61,-13.47,0,*61
1521568914.72,65346,11.56,72084.0,-12.43,-13.55,-13.47,0,*65
1521568915.92,65347,11.63,72086.5,-12.43,-13.69,-13.47,0,*6B
1521568917.14,65348,11.63,72086.0,-12.43,-13.69,-13.55,0,*67
1521568918.37,65349,11.63,72086.5,-12.43,-13.61,-13.47,0,*6D
1521568919.61,65350,11.63,72084.3,-12.43,-13.61,-13.55,0,*66
1521568920.83,65351,11.63,72080.5,-12.43,-13.55,-13.55,0,*60
1521568922.04,65352,11.63,72084.3,-12.43,-13.55,-13.55,0,*63
1521568923.25,65353,11.63,72084.0,-12.43,-13.55,-13.55,0,*62
1521568924.47,65354,11.63,72086.5,-12.43,-13.55,-13.55,0,*65
1521568925.68,65355,11.63,72086.5,-12.43,-13.55,-13.47,0,*67
1521568926.89,65356,11.63,72086.0,-12.43,-13.47,-13.55,0,*64
1521568928.11,65357,11.56,72082.8,-12.41,-13.55,-13.47,0,*67
1521568929.33,65358,11.63,72084.5,-12.43,-13.55,-13.55,0,*69
1521568930.54,65359,11.63,72082.5,-12.43,-13.55,-13.47,0,*6B
1521568931.75,65360,11.63,72086.5,-12.43,-13.55,-13.55,0,*62
1521568932.97,65361,11.63,72088.3,-12.43,-13.55,-13.55,0,*63
1521568934.18,65362,11.63,72090.0,-12.43,-13.47,-13.55,0,*63
1521568935.38,65363,11.63,72086.8,-12.43,-13.55,-13.47,0,*62
1521568936.61,65364,11.63,72086.8,-12.41,-13.55,-13.47,0,*67
1521568937.82,65365,11.63,72086.0,-12.43,-13.55,-13.47,0,*64
1521568939.03,65366,11.63,72084.5,-12.43,-13.55,-13.47,0,*67
1521568940.23,65367,11.63,72088.3,-12.43,-13.47,-13.47,0,*65
1521568941.44,65368,11.63,72090.5,-12.43,-13.55,-13.47,0,*69
1521568942.64,65369,11.63,72088.0,-12.43,-13.47,-13.47,0,*6B
1521568943.85,65370,11.63,72088.0,-12.43,-13.55,-13.47,0,*60
1521568945.08,65371,11.63,72086.0,-12.41,-13.55,-13.47,0,*63
1521568946.29,65372,11.63,72086.5,-12.43,-13.55,-13.43,0,*66
1521568947.49,65373,11.63,72084.8,-12.43,-13.47,-13.47,0,*60
1521568948.7,65374,11.63,72084.8,-12.43,-13.43,-13.47,0,*63
1521568949.91,65375,11.63,72088.8,-12.43,-13.55,-13.55,0,*66
1521568951.13,65376,11.63,72088.5,-12.43,-13.55,-13.55,0,*65
1521568952.34,65377,11.63,72088.3,-12.43,-13.55,-13.47,0,*67
1521568953.57,65378,11.63,72088.5,-12.41,-13.55,-13.55,0,*69
1521568954.78,65379,11.63,72092.3,-12.43,-13.47,-13.47,0,*6A
1521568955.98,65380,11.56,72090.3,-12.43,-13.47,-13.47,0,*6C
1521568957.19,65381,11.63,72090.8,-12.43,-13.47,-13.55,0,*6E
1521568958.4,65382,11.63,72088.3,-12.43,-13.47,-13.43,0,*6A
1521568959.6,65383,11.63,72090.3,-12.43,-13.47,-13.43,0,*6B
1521568960.81,65384,11.63,72090.5,-12.43,-13.55,-13.47,0,*6B
1521568962.02,65385,11.56,72086.5,-12.43,-13.55,-13.47,0,*6A
1521568963.22,65386,11.63,72090.5,-12.43,-13.47,-13.47,0,*6A
1521568964.43,65387,11.56,72090.3,-12.43,-13.47,-13.47,0,*6B
1521568965.63,65388,11.63,72094.3,-12.43,-13.47,-13.47,0,*64
1521568966.86,65389,11.63,72090.5,-12.41,-13.47,-13.55,0,*64
1521568968.07,65390,11.63,72088.0,-12.43,-13.55,-13.47,0,*6E
1521568969.27,65391,11.63,72090.5,-12.43,-13.47,-13.47,0,*6C
1521568970.51,65392,11.63,72090.8,-12.43,-13.47,-13.33,0,*6C
1521568971.71,65393,11.63,72090.0,-12.43,-13.47,-13.47,0,*6E
1521568972.92,65394,11.63,72090.5,-12.43,-13.55,-13.43,0,*6E
1521568974.13,65395,11.63,72088.3,-12.43,-13.47,-13.47,0,*68
1521568975.36,65396,11.56,72088.0,-12.41,-13.55,-13.47,0,*6A
1521568976.56,65397,11.56,72090.0,-12.43,-13.47,-13.47,0,*6A
1521568977.76,65398,11.63,72094.0,-12.43,-13.47,-13.47,0,*65
1521568978.98,65399,11.63,72094.8,-12.43,-13.55,-13.55,0,*64
1521568980.18,65400,11.63,72094.3,-12.43,-13.47,-13.43,0,*67
1521568981.41,65401,11.63,72092.0,-12.41,-13.47,-13.47,0,*60
1521568982.64,65402,11.63,72092.8,-12.45,-13.47,-13.47,0,*67
1521568983.86,65403,11.63,72098.3,-12.41,-13.47,-13.47,0,*62
1521568985.09,65404,11.63,72094.0,-12.41,-13.47,-13.43,0,*61
1521568986.32,65405,11.63,72096.0,-12.41,-13.47,-13.43,0,*60
1521568987.52,65406,11.56,72092.8,-12.43,-13.47,-13.47,0,*65
1521568988.73,65407,11.56,72092.0,-12.43,-13.47,-13.43,0,*60
1521568989.94,65408,11.63,72094.0,-12.43,-13.47,-13.43,0,*6F
1521568991.14,65409,11.63,72092.5,-12.43,-13.47,-13.43,0,*6E
1521568992.35,65410,11.63,72092.8,-12.43,-13.47,-13.43,0,*66
1521568993.57,65411,11.63,72094.5,-12.41,-13.47,-13.47,0,*61
1521568994.8,65412,11.63,72092.5,-12.41,-13.47,-13.47,0,*62
1521568996.0,65413,11.63,72088.8,-12.43,-13.47,-13.47,0,*61
1521568997.21,65414,11.63,72092.5,-12.43,-13.55,-13.43,0,*61
1521568998.42,65415,11.63,72094.5,-12.43,-13.55,-13.47,0,*64
1521568999.63,65416,11.56,72090.5,-12.43,-13.47,-13.43,0,*60
1521569000.84,65417,11.63,72098.3,-12.43,-13.43,-13.43,0,*65
1521569002.1,65418,11.63,72098.3,-12.41,-13.47,-13.33,0,*6B
1521569003.3,65419,11.63,72096.5,-12.43,-13.47,-13.43,0,*6F
1521569004.53,65420,11.63,72096.0,-12.41,-13.47,-13.43,0,*67
1521569005.76,65421,11.63,72102.3,-12.41,-13.43,-13.43,0,*62
1521569007.0,65422,11.63,72102.3,-12.43,-13.47,-13.33,0,*60
1521569008.26,65423,11.56,72098.5,-12.41,-13.43,-13.33,0,*67
1521569009.49,65424,11.56,72098.3,-12.41,-13.43,-13.43,0,*67
1521569010.75,65425,11.63,72102.0,-12.43,-13.33,-13.33,0,*64
1521569011.98,65426,11.63,72100.8,-12.41,-13.43,-13.43,0,*65
1521569013.19,65427,11.63,72102.5,-12.43,-13.47,-13.47,0,*66
1521569014.39,65428,11.63,72104.3,-12.43,-13.47,-13.43,0,*6D
1521569015.6,65429,11.63,72100.0,-12.43,-13.47,-13.43,0,*6C
1521569016.81,65430,11.63,72100.0,-12.43,-13.43,-13.43,0,*60
1521569018.02,65431,11.63,72102.8,-12.43,-13.43,-13.43,0,*61
1521569019.25,65432,11.63,72102.3,-12.43,-13.33,-13.43,0,*65
1521569020.49,65433,11.56,72100.5,-12.41,-13.43,-13.43,0,*61
1521569021.73,65434,11.63,72102.5,-12.43,-13.43,-13.33,0,*63
1521569022.94,65435,11.56,72102.5,-12.43,-13.43,-13.43,0,*65
1521569024.15,65436,11.56,72100.8,-12.43,-13.43,-13.43,0,*66
1521569025.37,65437,11.63,72102.5,-12.41,-13.47,-13.43,0,*61
1521569026.6,65438,11.63,72100.3,-12.41,-13.43,-13.43,0,*6A
1521569027.81,65439,11.56,72100.0,-12.43,-13.47,-13.43,0,*6D
1521569029.07,65440,11.63,72102.5,-12.41,-13.43,-13.33,0,*62
1521569030.3,65441,11.56,72096.8,-12.41,-13.43,-13.43,0,*64
1521569031.53,65442,11.56,72094.5,-12.41,-13.43,-13.43,0,*67
1521569032.76,65443,11.56,72096.0,-12.41,-13.47,-13.43,0,*62
1521569033.99,65444,11.56,72094.8,-12.41,-13.47,-13.43,0,*65
1521569035.22,65445,11.56,72096.5,-12.41,-13.55,-13.43,0,*67
1521569036.43,65446,11.63,72100.8,-12.43,-13.43,-13.43,0,*61
1521569037.64,65447,11.63,72098.5,-12.43,-13.47,-13.43,0,*64
1521569038.86,65448,11.56,72090.8,-12.41,-13.47,-13.47,0,*6D
1521569040.09,65449,11.63,72092.8,-12.41,-13.47,-13.43,0,*68
1521569041.29,65450,11.56,72090.8,-12.43,-13.47,-13.47,0,*66
1521569042.52,65451,11.63,72094.8,-12.41,-13.47,-13.43,0,*61
1521569043.72,65452,11.56,72092.0,-12.43,-13.47,-13.47,0,*64
1521569044.93,65453,11.56,72092.0,-12.43,-13.47,-13.47,0,*65
1521569046.13,65454,11.56,72094.0,-12.43,-13.47,-13.43,0,*66
1521569047.34,65455,11.63,72092.8,-12.43,-13.47,-13.43,0,*67
1521569048.54,65456,11.56,72092.5,-12.43,-13.47,-13.47,0,*60
1521569049.75,65457,11.56,72088.8,-12.43,-13.47,-13.47,0,*61
1521569050.95,65458,11.56,72088.0,-12.43,-13.55,-13.47,0,*6D
1521569052.16,65459,11.56,72090.5,-12.43,-13.47,-13.47,0,*6F
1521569053.39,65460,11.56,72088.5,-12.41,-13.47,-13.55,0,*64
1521569054.6,65461,11.56,72092.8,-12.43,-13.55,-13.47,0,*67
1521569055.8,65462,11.56,72092.5,-12.43,-13.47,-13.47,0,*67
1521569057.01,65463,11.63,72092.5,-12.43,-13.55,-13.55,0,*66
1521569058.22,65464,11.56,72088.0,-12.43,-13.47,-13.55,0,*62
1521569059.45,65465,11.56,72086.8,-12.41,-13.47,-13.47,0,*62
1521569060.66,65466,11.56,72088.5,-12.43,-13.55,-13.47,0,*60
1521569061.86,65467,11.63,72092.3,-12.43,-13.47,-13.47,0,*62
1521569063.07,65468,11.56,72086.5,-12.43,-13.47,-13.55,0,*6E
1521569064.27,65469,11.56,72088.8,-12.43,-13.47,-13.47,0,*6C
1521569065.5,65470,11.63,72092.0,-12.41,-13.47,-13.55,0,*65
1521569066.74,65471,11.63,72094.0,-12.41,-13.47,-13.55,0,*64
1521569067.97,65472,11.63,72094.0,-12.41,-13.47,-13.55,0,*67
1521569069.2,65473,11.56,72092.3,-12.41,-13.55,-13.55,0,*65
1521569070.43,65474,11.56,72090.3,-12.41,-13.47,-13.55,0,*61
1521569071.65,65475,11.56,72090.0,-12.43,-13.55,-13.55,0,*61
1521569072.85,65476,11.56,72088.8,-12.43,-13.55,-13.47,0,*61
1521569074.09,65477,11.63,72092.0,-12.41,-13.47,-13.55,0,*62
1521569075.32,65478,11.56,72088.8,-12.41,-13.55,-13.55,0,*6E
1521569076.53,65479,11.56,72090.3,-12.43,-13.55,-13.43,0,*6A
1521569077.76,65480,11.63,72090.5,-12.41,-13.47,-13.47,0,*69
1521569078.97,65481,11.56,72090.3,-12.43,-13.55,-13.55,0,*6A
1521569080.17,65482,11.56,72090.0,-12.43,-13.47,-13.47,0,*69
1521569081.41,65483,11.56,72090.5,-12.41,-13.55,-13.55,0,*6A
1521569082.61,65484,11.56,72090.0,-12.43,-13.47,-13.47,0,*6F
1521569083.82,65485,11.56,72088.8,-12.43,-13.47,-13.47,0,*6E
1521569085.03,65486,11.56,72094.5,-12.43,-13.55,-13.55,0,*6D
1521569086.23,65487,11.56,72094.0,-12.43,-13.47,-13.47,0,*6C
1521569087.46,65488,11.56,72094.0,-12.41,-13.55,-13.47,0,*62
1521569088.67,65489,11.56,72094.3,-12.43,-13.47,-13.47,0,*62
1521569089.87,65490,11.56,72090.8,-12.43,-13.55,-13.47,0,*69
1521569091.08,65491,11.56,72088.8,-12.43,-13.55,-13.47,0,*68
1521569092.31,65492,11.56,72092.0,-12.41,-13.55,-13.47,0,*69
1521569093.53,65493,11.56,72090.3,-12.41,-13.47,-13.47,0,*6B
1521569094.74,65494,11.63,72092.0,-12.43,-13.47,-13.47,0,*6E
1521569095.97,65495,11.56,72094.0,-12.41,-13.55,-13.47,0,*6E
1521569097.2,65496,11.56,72094.0,-12.41,-13.55,-13.55,0,*6E
1521569098.41,65497,11.56,72088.3,-12.43,-13.47,-13.55,0,*6E
1521569099.65,65498,11.56,72092.0,-12.41,-13.55,-13.55,0,*60
1521569100.85,65499,11.56,72094.0,-12.43,-13.47,-13.47,0,*63
1521569102.06,65500,11.63,72092.8,-12.43,-13.55,-13.47,0,*61
1521569103.29,65501,11.56,72090.8,-12.41,-13.55,-13.55,0,*61
1521569104.51,65502,11.56,72092.3,-12.43,-13.55,-13.55,0,*60
1521569105.71,65503,11.56,72090.8,-12.43,-13.55,-13.47,0,*62
1521569106.92,65504,11.56,72092.5,-12.43,-13.55,-13.47,0,*65
1521569108.13,65505,11.56,72088.3,-12.43,-13.55,-13.47,0,*64
1521569109.36,65506,11.56,72086.8,-12.41,-13.47,-13.55,0,*65
1521569110.56,65507,11.56,72088.5,-12.43,-13.47,-13.47,0,*65
1521569111.77,65508,11.56,72086.3,-12.43,-13.47,-13.47,0,*6A
1521569112.99,65509,11.56,72084.3,-12.41,-13.47,-13.47,0,*69
1521569114.2,65510,11.56,72086.8,-12.43,-13.47,-13.47,0,*63
1521569115.42,65511,11.56,72080.8,-12.41,-13.47,-13.47,0,*60
1521569116.65,65512,11.56,72084.8,-12.41,-13.47,-13.55,0,*60
1521569117.88,65513,11.56,72088.5,-12.41,-13.47,-13.47,0,*62
1521569119.1,65514,11.56,72088.3,-12.41,-13.55,-13.47,0,*66
1521569120.32,65515,11.56,72090.5,-12.43,-13.55,-13.55,0,*66
1521569121.54,65516,11.56,72086.0,-12.41,-13.47,-13.47,0,*67
1521569122.75,65517,11.63,72090.3,-12.43,-13.47,-13.55,0,*67
1521569123.98,65518,11.56,72084.5,-12.41,-13.55,-13.43,0,*6E
1521569125.19,65519,11.56,72086.8,-12.43,-13.55,-13.47,0,*69
1521569126.43,65520,11.56,72086.3,-12.41,-13.55,-13.55,0,*62
1521569127.66,65521,11.56,72090.0,-12.41,-13.55,-13.47,0,*60
1521569128.86,65522,11.56,72090.0,-12.43,-13.47,-13.47,0,*62
1521569130.09,65523,11.56,72088.3,-12.41,-13.47,-13.55,0,*62
1521569131.3,65524,11.56,72092.8,-12.43,-13.47,-13.43,0,*60
1521569132.5,65525,11.56,72088.3,-12.43,-13.47,-13.43,0,*61
1521569133.73,65526,11.56,72086.8,-12.41,-13.47,-13.47,0,*64
1521569134.94,65527,11.56,72094.0,-12.43,-13.55,-13.47,0,*64
1521569136.14,65528,11.56,72098.0,-12.43,-13.47,-13.43,0,*6C
1521569137.35,65529,11.56,72098.8,-12.43,-13.47,-13.47,0,*69
1521569138.55,65530,11.56,72096.0,-12.43,-13.47,-13.47,0,*61
1521569139.76,65531,11.56,72098.0,-12.43,-13.47,-13.43,0,*64
1521569140.98,65532,11.56,72098.3,-12.41,-13.47,-13.47,0,*61
1521569142.21,65533,11.56,72096.8,-12.41,-13.55,-13.47,0,*63
1521569143.42,65534,11.63,72100.3,-12.43,-13.55,-13.47,0,*66
1521569144.63,65535,11.56,72094.5,-12.43,-13.55,-13.55,0,*64
1521569145.81,0,11.56,72094.5,-12.43,-13.47,-13.43,0,*60
1521569147.0,1,11.56,72092.8,-12.43,-13.47,-13.43,0,*61
1521569148.2,2,11.56,72092.5,-12.41,-13.47,-13.47,0,*64
1521569149.41,3,11.56,72094.8,-12.41,-13.55,-13.43,0,*62
1521569150.61,4,11.56,72094.3,-12.41,-13.47,-13.43,0,*66
1521569151.8,5,11.56,72092.0,-12.43,-13.55,-13.47,0,*62
1521569152.98,6,11.56,72092.0,-12.43,-13.47,-13.43,0,*66
1521569154.19,7,11.56,72092.3,-12.41,-13.47,-13.43,0,*65
1521569155.39,8,11.56,72092.8,-12.41,-13.47,-13.47,0,*6E
1521569156.59,9,11.56,72092.8,-12.41,-13.47,-13.47,0,*6F
1521569157.8,10,11.56,72088.5,-12.41,-13.47,-13.47,0,*57
1521569158.99,11,11.56,72088.0,-12.43,-13.55,-13.47,0,*57
1521569160.21,12,11.56,72088.8,-12.43,-13.47,-13.33,0,*54
1521569161.4,13,11.56,72090.5,-12.43,-13.47,-13.43,0,*52
1521569162.58,14,11.56,72090.0,-12.43,-13.47,-13.47,0,*51
1521569163.78,15,11.56,72090.0,-12.43,-13.47,-13.55,0,*53
1521569164.97,16,11.56,72090.8,-12.43,-13.47,-13.47,0,*53
1521569166.18,17,11.56,72088.8,-12.41,-13.43,-13.47,0,*54
1521569167.39,18,11.56,72084.5,-12.41,-13.55,-13.55,0,*5F
1521569168.58,19,11.56,72088.8,-12.43,-13.47,-13.47,0,*5C
1521569169.77,20,11.56,72088.3,-12.43,-13.47,-13.55,0,*55
1521569170.96,21,11.56,72090.8,-12.43,-13.47,-13.47,0,*57
1521569172.17,22,11.56,72088.3,-12.41,-13.47,-13.43,0,*52
1521569173.38,23,11.56,72090.8,-12.41,-13.47,-13.43,0,*53
1521569174.57,24,11.63,72094.0,-12.43,-13.55,-13.47,0,*51
1521569175.78,25,11.56,72090.3,-12.41,-13.47,-13.47,0,*51
1521569176.99,26,11.56,72088.5,-12.41,-13.47,-13.47,0,*52
1521569178.2,27,11.56,72092.3,-12.41,-13.55,-13.43,0,*54
1521569179.39,28,11.56,72090.3,-12.43,-13.55,-13.43,0,*59
1521569180.59,29,11.56,72090.8,-12.43,-13.43,-13.43,0,*5F
1521569181.79,30,11.56,72090.5,-12.41,-13.47,-13.47,0,*55
1521569183.01,31,11.56,72092.8,-12.41,-13.55,-13.47,0,*57
1521569184.25,32,11.56,72094.0,-12.41,-13.47,-13.33,0,*54
1521569185.46,33,11.56,72094.8,-12.41,-13.55,-13.43,0,*51
1521569186.65,34,11.56,72094.0,-12.43,-13.55,-13.47,0,*50
1521569187.84,35,11.56,72094.5,-12.43,-13.47,-13.55,0,*51
1521569189.03,36,11.56,72092.3,-12.43,-13.47,-13.47,0,*51
1521569190.22,37,11.56,72088.5,-12.43,-13.47,-13.47,0,*50
1521569191.41,38,11.56,72094.5,-12.43,-13.47,-13.43,0,*5B
1521569192.62,39,11.56,72092.3,-12.41,-13.47,-13.43,0,*58
1521569193.81,40,11.56,72094.5,-12.43,-13.55,-13.47,0,*53
1521569195.0,41,11.56,72092.3,-12.43,-13.55,-13.43,0,*56
1521569196.21,42,11.56,72092.5,-12.41,-13.55,-13.47,0,*53
1521569197.43,43,11.56,72090.0,-12.41,-13.55,-13.47,0,*52
1521569198.64,44,11.56,72090.8,-12.41,-13.55,-13.47,0,*55
1521569199.84,45,11.56,72088.3,-12.41,-13.47,-13.47,0,*57
1521569201.06,46,11.56,72084.8,-12.41,-13.55,-13.43,0,*53
1521569202.27,47,11.56,72092.3,-12.41,-13.55,-13.43,0,*52
1521569203.46,48,11.56,72094.0,-12.43,-13.47,-13.47,0,*58
1521569204.67,49,11.56,72086.3,-12.41,-13.47,-13.55,0,*58
1521569205.88,50,11.63,72086.0,-12.41,-13.47,-13.47,0,*53
1521569207.08,51,11.56,72088.5,-12.43,-13.55,-13.55,0,*50
1521569208.27,52,11.56,72090.8,-12.43,-13.47,-13.47,0,*53
1521569209.48,53,11.56,72090.0,-12.41,-13.55,-13.47,0,*53
1521569210.66,54,11.56,72096.5,-12.43,-13.47,-13.47,0,*55
1521569211.87,55,11.56,72096.3,-12.41,-13.55,-13.47,0,*55
1521569213.08,56,11.56,72092.3,-12.41,-13.47,-13.43,0,*51
1521569214.29,57,11.56,72092.0,-12.41,-13.47,-13.47,0,*54
1521569215.48,58,11.56,72094.8,-12.43,-13.55,-13.47,0,*5A
1521569216.7,59,11.56,72096.3,-12.41,-13.55,-13.55,0,*5A
1521569217.89,60,11.56,72098.0,-12.43,-13.47,-13.47,0,*52
1521569219.08,61,11.56,72096.3,-12.43,-13.55,-13.47,0,*50
1521569220.27,62,11.56,72098.3,-12.43,-13.47,-13.47,0,*50
1521569221.46,63,11.56,72094.5,-12.43,-13.47,-13.55,0,*52
1521569222.67,64,11.56,72098.8,-12.41,-13.47,-13.47,0,*54
1521569223.85,65,11.56,72100.8,-12.43,-13.47,-13.47,0,*57
1521569225.06,66,11.56,72098.8,-12.41,-13.47,-13.43,0,*52
1521569226.26,67,11.56,72096.5,-12.43,-13.55,-13.55,0,*55
1521569227.47,68,11.56,72096.0,-12.41,-13.55,-13.47,0,*5B
1521569228.68,69,11.56,72096.5,-12.41,-13.55,-13.47,0,*5A
1521569229.87,70,11.56,72092.3,-12.43,-13.47,-13.47,0,*53
1521569231.07,71,11.56,72096.3,-12.43,-13.55,-13.55,0,*52
1521569232.25,72,11.56,72098.3,-12.43,-13.47,-13.47,0,*51
1521569233.45,73,11.56,72092.0,-12.43,-13.47,-13.55,0,*53
1521569234.64,74,11.56,72092.8,-12.43,-13.55,-13.47,0,*54
1521569235.85,75,11.56,72094.5,-12.41,-13.55,-13.47,0,*57
1521569237.06,76,11.56,72098.8,-12.41,-13.47,-13.47,0,*57
1521569238.25,77,11.56,72098.5,-12.43,-13.55,-13.55,0,*54
1521569239.44,78,11.56,72096.5,-12.43,-13.47,-13.47,0,*5B
1521569240.63,79,11.56,72096.5,-12.43,-13.55,-13.47,0,*59
1521569241.84,80,11.56,72094.3,-12.41,-13.47,-13.47,0,*5E
1521569243.04,81,11.56,72098.8,-12.41,-13.47,-13.47,0,*5F
1521569244.23,82,11.56,72098.0,-12.43,-13.47,-13.47,0,*5E
1521569245.42,83,11.56,72098.0,-12.43,-13.55,-13.47,0,*5C
1521569246.61,84,11.56,72096.0,-12.43,-13.55,-13.47,0,*5B
1521569247.81,85,11.56,72100.3,-12.43,-13.47,-13.55,0,*5A
1521569248.99,86,11.56,72098.0,-12.43,-13.47,-13.47,0,*5A
1521569250.2,87,11.56,72094.5,-12.41,-13.55,-13.47,0,*5A
1521569251.39,88,11.56,72098.8,-12.43,-13.47,-13.43,0,*50
1521569252.58,89,11.56,72100.0,-12.43,-13.55,-13.47,0,*56
1521569253.78,90,11.56,72098.5,-12.43,-13.47,-13.55,0,*5E
1521569254.97,91,11.56,72096.5,-12.43,-13.55,-13.55,0,*5C
1521569256.19,92,11.56,72098.0,-12.41,-13.55,-13.55,0,*5D
1521569257.41,93,11.56,72100.5,-12.41,-13.55,-13.55,0,*5C
1521569258.61,94,11.56,72102.3,-12.43,-13.55,-13.55,0,*59
1521569259.8,95,11.56,72102.8,-12.43,-13.47,-13.55,0,*5B
1521569260.99,96,11.56,72100.5,-12.43,-13.55,-13.47,0,*58
1521569262.19,97,11.56,72098.3,-12.43,-13.55,-13.55,0,*5A
1521569263.4,98,11.56,72096.5,-12.41,-13.55,-13.47,0,*54
1521569264.62,99,11.56,72096.8,-12.41,-13.55,-13.55,0,*56
1521569265.82,100,11.56,72098.3,-12.43,-13.47,-13.55,0,*66
1521569267.01,101,11.56,72098.0,-12.43,-13.47,-13.47,0,*64
1521569268.23,102,11.56,72098.5,-12.41,-13.47,-13.55,0,*66
1521569269.45,103,11.56,72096.8,-12.41,-13.55,-13.47,0,*67
1521569270.66,104,11.56,72096.8,-12.41,-13.47,-13.47,0,*63
1521569271.87,105,11.56,72094.5,-12.41,-13.47,-13.47,0,*62
1521569273.07,106,11.56,72096.8,-12.43,-13.55,-13.47,0,*60
1521569274.26,107,11.56,72098.0,-12.43,-13.47,-13.47,0,*62
1521569275.46,108,11.56,72096.3,-12.43,-13.47,-13.55,0,*6E
1521569276.69,109,11.56,72096.8,-12.41,-13.55,-13.55,0,*6E
1521569277.88,110,11.56,72098.3,-12.43,-13.55,-13.47,0,*67
1521569279.08,111,11.56,72096.8,-12.43,-13.55,-13.47,0,*66
1521569280.3,112,11.56,72098.8,-12.41,-13.55,-13.47,0,*67
1521569281.49,113,11.56,72098.0,-12.43,-13.47,-13.47,0,*67
1521569282.68,114,11.56,72094.8,-12.43,-13.55,-13.47,0,*63
1521569283.88,115,11.56,72092.5,-12.43,-13.47,-13.47,0,*61
1521569285.09,116,11.56,72094.0,-12.41,-13.47,-13.47,0,*60
1521569286.29,117,11.56,72088.3,-12.43,-13.47,-13.55,0,*60